Volver al catálogo

COSMOS 2391

ActivoMilitarPO
NORAD 27465·PAYLOAD·🇷🇺 Russia

Lanzado Jul 8, 2002 desde Plesetsk Cosmodrome

Loading…

Próximos Pases (próximas 24 horas)

TLE

ActualizadoSource: Space-Track

Época: Sep 14, 2026, 14:00 UTC

1 27465U 02036B   26257.58399178  .00000048  00000-0  26927-3 0  9998
2 27465  82.4801 285.5537 0027378  58.4377 301.9372 12.44948207 98974

Sigue COSMOS 2391 en tiempo real con AllMySat

Download on the App Store